N71622 KLXV-KLXV

Flight info

Callsign N71622
Flight time 1h 37m
Altitude 13500
Route KASE KGWS KEGE
Aircraft C182/L-SDFG/S

Departure

Time 2026-04-22 00:09
Airport Lake County Airport (KLXV)

Arrival

Time 2026-04-22 01:46
Airport Lake County Airport (KLXV)
Time Latitude Longitude Altitude Speed Heading
2026-04-21 23:37 39.22457 -106.31579 9940 ft 0 kts 351°
2026-04-21 23:46 39.22460 -106.31585 9940 ft 3 kts 291°
2026-04-21 23:46 39.22471 -106.31624 9932 ft 6 kts 301°
2026-04-21 23:46 39.22481 -106.31643 9934 ft 0 kts 300°
2026-04-21 23:48 39.22482 -106.31646 9935 ft 2 kts 298°
2026-04-21 23:48 39.22488 -106.31677 9937 ft 3 kts 262°
2026-04-21 23:48 39.22488 -106.31683 9937 ft 0 kts 259°
2026-04-21 23:57 39.22479 -106.31735 9939 ft 12 kts 243°
2026-04-21 23:57 39.22377 -106.31738 9939 ft 20 kts 169°
2026-04-21 23:58 39.22205 -106.31698 9939 ft 30 kts 170°
2026-04-21 23:58 39.21993 -106.31652 9937 ft 31 kts 169°
2026-04-21 23:58 39.21781 -106.31602 9933 ft 31 kts 169°
2026-04-21 23:58 39.21568 -106.31557 9931 ft 31 kts 168°
2026-04-21 23:59 39.21357 -106.31510 9929 ft 30 kts 169°
2026-04-21 23:59 39.21193 -106.31474 9931 ft 16 kts 168°
2026-04-21 23:59 39.21172 -106.31383 9930 ft 10 kts 87°
2026-04-21 23:59 39.21118 -106.31355 9929 ft 9 kts 171°
2026-04-22 00:00 39.21097 -106.31379 9927 ft 0 kts 261°
2026-04-22 00:05 39.21097 -106.31380 9901 ft 1 kts 260°
2026-04-22 00:05 39.21090 -106.31427 9930 ft 6 kts 259°
2026-04-22 00:05 39.21090 -106.31462 9927 ft 1 kts 352°
2026-04-22 00:07 39.21117 -106.31468 9930 ft 14 kts 346°
2026-04-22 00:07 39.21311 -106.31503 9930 ft 43 kts 349°
2026-04-22 00:08 39.21693 -106.31586 9931 ft 68 kts 352°
2026-04-22 00:08 39.22224 -106.31705 9973 ft 84 kts 342°
2026-04-22 00:08 39.22815 -106.31780 10059 ft 86 kts 338°
2026-04-22 00:08 39.23385 -106.32017 10152 ft 85 kts 326°
2026-04-22 00:09 39.23799 -106.32480 10443 ft 77 kts 287°
2026-04-22 00:09 39.23817 -106.33147 10661 ft 74 kts 247°
2026-04-22 00:09 39.23467 -106.33664 10710 ft 84 kts 216°
2026-04-22 00:09 39.22939 -106.34078 10826 ft 94 kts 205°
2026-04-22 00:10 39.22344 -106.34418 11113 ft 93 kts 204°
2026-04-22 00:10 39.21777 -106.34638 11400 ft 81 kts 193°
2026-04-22 00:10 39.21257 -106.34835 11586 ft 76 kts 192°
2026-04-22 00:10 39.20752 -106.34943 11739 ft 71 kts 189°
2026-04-22 00:11 39.20274 -106.35052 11830 ft 71 kts 189°
2026-04-22 00:11 39.19763 -106.35138 11914 ft 75 kts 187°
2026-04-22 00:11 39.19233 -106.35190 12000 ft 78 kts 188°
2026-04-22 00:11 39.18701 -106.35262 12080 ft 77 kts 187°
2026-04-22 00:12 39.18163 -106.35337 12146 ft 78 kts 188°
2026-04-22 00:12 39.17620 -106.35409 12216 ft 78 kts 189°
2026-04-22 00:12 39.17070 -106.35471 12286 ft 80 kts 189°
2026-04-22 00:12 39.16494 -106.35544 12395 ft 86 kts 189°
2026-04-22 00:13 39.15893 -106.35616 12503 ft 90 kts 189°
2026-04-22 00:13 39.15235 -106.35703 12515 ft 100 kts 187°
2026-04-22 00:13 39.14514 -106.35791 12511 ft 109 kts 187°
2026-04-22 00:13 39.13735 -106.35906 12511 ft 117 kts 189°
2026-04-22 00:14 39.12910 -106.36022 12501 ft 121 kts 190°
2026-04-22 00:14 39.12066 -106.36191 12485 ft 124 kts 192°
2026-04-22 00:14 39.11224 -106.36366 12482 ft 121 kts 191°
2026-04-22 00:14 39.10391 -106.36561 12465 ft 121 kts 194°
2026-04-22 00:15 39.09555 -106.36781 12462 ft 125 kts 194°
2026-04-22 00:15 39.08707 -106.37055 12444 ft 126 kts 204°
2026-04-22 00:15 39.07958 -106.37636 12425 ft 126 kts 221°
2026-04-22 00:15 39.07351 -106.38423 12417 ft 123 kts 226°
2026-04-22 00:16 39.06840 -106.39294 12409 ft 125 kts 241°
2026-04-22 00:16 39.06744 -106.40418 12399 ft 128 kts 269°
2026-04-22 00:16 39.06810 -106.41523 12523 ft 121 kts 269°
2026-04-22 00:16 39.06877 -106.42549 12712 ft 108 kts 270°
2026-04-22 00:17 39.06934 -106.43447 12934 ft 98 kts 269°
2026-04-22 00:17 39.07036 -106.44292 13170 ft 95 kts 274°
2026-04-22 00:17 39.07162 -106.45099 13393 ft 88 kts 273°
2026-04-22 00:17 39.07285 -106.45901 13484 ft 99 kts 274°
2026-04-22 00:18 39.07404 -106.46827 13502 ft 110 kts 273°
2026-04-22 00:18 39.07497 -106.47842 13507 ft 118 kts 271°
2026-04-22 00:18 39.07581 -106.48916 13501 ft 122 kts 271°
2026-04-22 00:18 39.07664 -106.50024 13496 ft 129 kts 271°
2026-04-22 00:19 39.07800 -106.51188 13482 ft 134 kts 275°
2026-04-22 00:19 39.08140 -106.52333 13493 ft 138 kts 291°
2026-04-22 00:19 39.08642 -106.53408 13486 ft 141 kts 302°
2026-04-22 00:19 39.09281 -106.54378 13477 ft 141 kts 306°
2026-04-22 00:20 39.09923 -106.55264 13477 ft 132 kts 306°
2026-04-22 00:20 39.10541 -106.56112 13483 ft 130 kts 307°
2026-04-22 00:20 39.10991 -106.57113 13336 ft 134 kts 279°
2026-04-22 00:20 39.11092 -106.58322 13196 ft 136 kts 263°
2026-04-22 00:21 39.10977 -106.59534 13000 ft 137 kts 262°
2026-04-22 00:21 39.11081 -106.60775 12888 ft 144 kts 279°
2026-04-22 00:21 39.11547 -106.61955 12756 ft 151 kts 299°
2026-04-22 00:21 39.12125 -106.63057 12586 ft 146 kts 296°
2026-04-22 00:22 39.12494 -106.64244 12435 ft 142 kts 281°
2026-04-22 00:22 39.12682 -106.65490 12264 ft 141 kts 271°
2026-04-22 00:22 39.12620 -106.66749 12077 ft 142 kts 256°
2026-04-22 00:22 39.12323 -106.67944 11876 ft 140 kts 246°
2026-04-22 00:23 39.11952 -106.69074 11696 ft 136 kts 245°
2026-04-22 00:23 39.11689 -106.70210 11540 ft 125 kts 258°
2026-04-22 00:23 39.11610 -106.71279 11396 ft 116 kts 263°
2026-04-22 00:23 39.11636 -106.72306 11235 ft 113 kts 278°
2026-04-22 00:24 39.11858 -106.73270 11088 ft 112 kts 284°
2026-04-22 00:24 39.12094 -106.74227 10911 ft 111 kts 285°
2026-04-22 00:24 39.12394 -106.75118 10703 ft 105 kts 295°
2026-04-22 00:24 39.12821 -106.75918 10505 ft 114 kts 306°
2026-04-22 00:25 39.13388 -106.76765 10379 ft 134 kts 311°
2026-04-22 00:25 39.14128 -106.77576 10265 ft 144 kts 317°
2026-04-22 00:25 39.15009 -106.78217 10168 ft 148 kts 330°
2026-04-22 00:25 39.15950 -106.78795 10032 ft 151 kts 330°
2026-04-22 00:26 39.16890 -106.79361 9913 ft 153 kts 330°
2026-04-22 00:26 39.17804 -106.80062 9765 ft 153 kts 312°
2026-04-22 00:26 39.18515 -106.81062 9631 ft 149 kts 304°
2026-04-22 00:26 39.19144 -106.82128 9502 ft 150 kts 300°
2026-04-22 00:27 39.19709 -106.83218 9346 ft 142 kts 300°
2026-04-22 00:27 39.20248 -106.84236 9188 ft 134 kts 302°
2026-04-22 00:27 39.20912 -106.85008 9015 ft 130 kts 329°
2026-04-22 00:27 39.21778 -106.85373 8862 ft 130 kts 340°
2026-04-22 00:28 39.22627 -106.85702 8808 ft 126 kts 340°
2026-04-22 00:28 39.23415 -106.86012 8800 ft 111 kts 339°
2026-04-22 00:28 39.24096 -106.86292 8792 ft 96 kts 331°
2026-04-22 00:28 39.24684 -106.86611 8790 ft 88 kts 332°
2026-04-22 00:29 39.25256 -106.86929 8799 ft 90 kts 334°
2026-04-22 00:29 39.25825 -106.87248 8760 ft 90 kts 320°
2026-04-22 00:29 39.26054 -106.87972 8552 ft 90 kts 260°
2026-04-22 00:29 39.25689 -106.88537 8311 ft 85 kts 196°
2026-04-22 00:30 39.25149 -106.88254 8095 ft 81 kts 157°
2026-04-22 00:30 39.24636 -106.87993 8013 ft 78 kts 163°
2026-04-22 00:30 39.24109 -106.87753 7894 ft 83 kts 163°
2026-04-22 00:30 39.23578 -106.87484 7781 ft 80 kts 163°
2026-04-22 00:31 39.23098 -106.87256 7697 ft 65 kts 163°
2026-04-22 00:31 39.22771 -106.87102 7719 ft 36 kts 160°
2026-04-22 00:31 39.22602 -106.87021 7733 ft 17 kts 161°
2026-04-22 00:31 39.22571 -106.86932 7736 ft 10 kts 73°
2026-04-22 00:32 39.22544 -106.86876 7739 ft 8 kts 158°
2026-04-22 00:32 39.22486 -106.86847 7742 ft 10 kts 161°
2026-04-22 00:32 39.22416 -106.86815 7748 ft 11 kts 161°
2026-04-22 00:32 39.22335 -106.86778 7754 ft 13 kts 161°
2026-04-22 00:33 39.22246 -106.86734 7761 ft 14 kts 158°
2026-04-22 00:33 39.22152 -106.86687 7768 ft 14 kts 159°
2026-04-22 00:33 39.22090 -106.86656 7773 ft 14 kts 160°
2026-04-22 00:33 39.22005 -106.86618 7780 ft 12 kts 158°
2026-04-22 00:34 39.21927 -106.86580 7787 ft 12 kts 160°
2026-04-22 00:34 39.21850 -106.86543 7786 ft 12 kts 160°
2026-04-22 00:34 39.21769 -106.86505 7799 ft 13 kts 159°
2026-04-22 00:34 39.21687 -106.86465 7805 ft 13 kts 159°
2026-04-22 00:35 39.21604 -106.86425 7812 ft 13 kts 159°
2026-04-22 00:35 39.21518 -106.86384 7818 ft 14 kts 160°
2026-04-22 00:35 39.21428 -106.86341 7825 ft 14 kts 160°
2026-04-22 00:35 39.21339 -106.86298 7832 ft 14 kts 159°
2026-04-22 00:36 39.21250 -106.86256 7838 ft 12 kts 164°
2026-04-22 00:36 39.21188 -106.86279 7842 ft 9 kts 233°
2026-04-22 00:36 39.21176 -106.86343 7841 ft 5 kts 335°
2026-04-22 00:36 39.21179 -106.86345 7841 ft 0 kts 339°
2026-04-22 00:38 39.21199 -106.86354 7833 ft 13 kts 335°
2026-04-22 00:38 39.21401 -106.86447 7826 ft 49 kts 339°
2026-04-22 00:38 39.21820 -106.86654 7806 ft 77 kts 334°
2026-04-22 00:38 39.22379 -106.86912 7845 ft 90 kts 335°
2026-04-22 00:39 39.22982 -106.87152 8020 ft 92 kts 341°
2026-04-22 00:39 39.23631 -106.87286 8223 ft 95 kts 349°
2026-04-22 00:39 39.24240 -106.87427 8465 ft 90 kts 338°
2026-04-22 00:39 39.24854 -106.87655 8574 ft 93 kts 339°
2026-04-22 00:40 39.25475 -106.87925 8722 ft 99 kts 334°
2026-04-22 00:40 39.26139 -106.88230 8895 ft 102 kts 330°
2026-04-22 00:40 39.26796 -106.88613 9083 ft 107 kts 328°
2026-04-22 00:40 39.27466 -106.89066 9276 ft 110 kts 322°
2026-04-22 00:41 39.28061 -106.89609 9491 ft 100 kts 313°
2026-04-22 00:41 39.28577 -106.90156 9663 ft 92 kts 308°
2026-04-22 00:41 39.28985 -106.90681 9799 ft 84 kts 301°
2026-04-22 00:41 39.29400 -106.91231 9910 ft 85 kts 303°
2026-04-22 00:42 39.29813 -106.91769 10033 ft 85 kts 306°
2026-04-22 00:42 39.30245 -106.92337 10149 ft 94 kts 308°
2026-04-22 00:42 39.30744 -106.92941 10283 ft 104 kts 310°
2026-04-22 00:42 39.31285 -106.93618 10464 ft 110 kts 308°
2026-04-22 00:43 39.31860 -106.94334 10496 ft 119 kts 310°
2026-04-22 00:43 39.32423 -106.95144 10484 ft 124 kts 304°
2026-04-22 00:43 39.32953 -106.96056 10367 ft 129 kts 299°
2026-04-22 00:43 39.33479 -106.97049 10241 ft 138 kts 299°
2026-04-22 00:44 39.33978 -106.98137 10110 ft 142 kts 294°
2026-04-22 00:44 39.34437 -106.99248 9978 ft 143 kts 294°
2026-04-22 00:44 39.34901 -107.00409 9829 ft 148 kts 293°
2026-04-22 00:44 39.35377 -107.01596 9694 ft 149 kts 294°
2026-04-22 00:45 39.35852 -107.02774 9560 ft 147 kts 294°
2026-04-22 00:45 39.36321 -107.03928 9427 ft 144 kts 294°
2026-04-22 00:45 39.36784 -107.05064 9289 ft 142 kts 294°
2026-04-22 00:45 39.37235 -107.06180 9161 ft 138 kts 294°
2026-04-22 00:46 39.37672 -107.07266 9035 ft 136 kts 294°
2026-04-22 00:46 39.38119 -107.08360 8894 ft 137 kts 293°
2026-04-22 00:46 39.38546 -107.09440 8752 ft 135 kts 290°
2026-04-22 00:46 39.38921 -107.10563 8595 ft 137 kts 286°
2026-04-22 00:47 39.39194 -107.11735 8422 ft 134 kts 281°
2026-04-22 00:47 39.39394 -107.12905 8257 ft 134 kts 279°
2026-04-22 00:47 39.39601 -107.14103 8082 ft 139 kts 279°
2026-04-22 00:47 39.39839 -107.15327 7894 ft 141 kts 281°
2026-04-22 00:48 39.40065 -107.16546 7730 ft 139 kts 279°
2026-04-22 00:48 39.40301 -107.17765 7557 ft 140 kts 279°
2026-04-22 00:48 39.40465 -107.18987 7374 ft 137 kts 275°
2026-04-22 00:48 39.40609 -107.20209 7197 ft 137 kts 275°
2026-04-22 00:49 39.40759 -107.21421 7030 ft 135 kts 275°
2026-04-22 00:49 39.40903 -107.22568 6963 ft 122 kts 275°
2026-04-22 00:49 39.41218 -107.23527 6945 ft 109 kts 297°
2026-04-22 00:49 39.41770 -107.24125 6968 ft 103 kts 320°
2026-04-22 00:50 39.42395 -107.24661 6995 ft 112 kts 319°
2026-04-22 00:50 39.43068 -107.25200 7008 ft 116 kts 323°
2026-04-22 00:50 39.43751 -107.25725 6995 ft 110 kts 321°
2026-04-22 00:50 39.44405 -107.26226 7002 ft 110 kts 323°
2026-04-22 00:51 39.45042 -107.26704 6997 ft 101 kts 320°
2026-04-22 00:51 39.45640 -107.27160 6959 ft 100 kts 321°
2026-04-22 00:51 39.46207 -107.27632 6877 ft 94 kts 318°
2026-04-22 00:51 39.46710 -107.28104 6777 ft 84 kts 313°
2026-04-22 00:52 39.47201 -107.28524 6669 ft 83 kts 318°
2026-04-22 00:52 39.47630 -107.29029 6530 ft 84 kts 305°
2026-04-22 00:52 39.48079 -107.29489 6488 ft 87 kts 329°
2026-04-22 00:52 39.48653 -107.29737 6370 ft 79 kts 336°
2026-04-22 00:53 39.49163 -107.30011 6219 ft 79 kts 327°
2026-04-22 00:53 39.49642 -107.30306 6032 ft 74 kts 327°
2026-04-22 00:53 39.50096 -107.30602 5911 ft 73 kts 324°
2026-04-22 00:53 39.50506 -107.30864 5868 ft 53 kts 336°
2026-04-22 00:54 39.50726 -107.30992 5868 ft 5 kts 11°
2026-04-22 00:54 39.50744 -107.30953 5868 ft 6 kts 59°
2026-04-22 00:54 39.50773 -107.30947 5867 ft 4 kts 333°
2026-04-22 00:54 39.50802 -107.30968 5868 ft 5 kts 330°
2026-04-22 00:55 39.50840 -107.30995 5869 ft 7 kts 337°
2026-04-22 00:55 39.50896 -107.31033 5870 ft 10 kts 330°
2026-04-22 00:55 39.51017 -107.31110 5871 ft 7 kts 318°
2026-04-22 00:56 39.51017 -107.31134 5873 ft 0 kts 246°
2026-04-22 00:56 39.51017 -107.31135 5873 ft 1 kts 246°
2026-04-22 00:57 39.51000 -107.31168 5873 ft 3 kts 178°
2026-04-22 00:57 39.50998 -107.31167 5873 ft 0 kts 154°
2026-04-22 00:57 39.50959 -107.31145 5871 ft 22 kts 154°
2026-04-22 00:58 39.50699 -107.30978 5867 ft 60 kts 154°
2026-04-22 00:58 39.50286 -107.30716 5981 ft 67 kts 161°
2026-04-22 00:58 39.49852 -107.30579 6096 ft 63 kts 179°
2026-04-22 00:58 39.49417 -107.30371 6196 ft 75 kts 150°
2026-04-22 00:59 39.48963 -107.29988 6371 ft 74 kts 161°
2026-04-22 00:59 39.48521 -107.30136 6525 ft 78 kts 237°
2026-04-22 00:59 39.48691 -107.30770 6694 ft 87 kts 321°
2026-04-22 00:59 39.49302 -107.30976 6866 ft 94 kts 346°
2026-04-22 01:00 39.49971 -107.31145 7050 ft 99 kts 339°
2026-04-22 01:00 39.50621 -107.31388 7201 ft 92 kts 334°
2026-04-22 01:00 39.51231 -107.31580 7368 ft 94 kts 338°
2026-04-22 01:00 39.51884 -107.31791 7514 ft 105 kts 336°
2026-04-22 01:01 39.52671 -107.32094 7518 ft 131 kts 335°
2026-04-22 01:01 39.53592 -107.32437 7518 ft 142 kts 340°
2026-04-22 01:01 39.54617 -107.32351 7503 ft 156 kts 15°
2026-04-22 01:01 39.55551 -107.31613 7513 ft 159 kts 43°
2026-04-22 01:02 39.56119 -107.30495 7764 ft 143 kts 75°
2026-04-22 01:02 39.56241 -107.29266 8057 ft 135 kts 91°
2026-04-22 01:02 39.56214 -107.28054 8341 ft 136 kts 100°
2026-04-22 01:02 39.56186 -107.26907 8666 ft 119 kts 100°
2026-04-22 01:03 39.56183 -107.25950 8910 ft 98 kts 99°
2026-04-22 01:03 39.56263 -107.25059 9043 ft 106 kts 82°
2026-04-22 01:03 39.56480 -107.24029 9146 ft 126 kts 77°
2026-04-22 01:03 39.56802 -107.23079 9372 ft 111 kts 66°
2026-04-22 01:04 39.57183 -107.22219 9570 ft 117 kts 59°
2026-04-22 01:04 39.57627 -107.21238 9469 ft 122 kts 64°
2026-04-22 01:04 39.58065 -107.20265 9528 ft 134 kts 61°
2026-04-22 01:04 39.58558 -107.19167 9482 ft 146 kts 62°
2026-04-22 01:05 39.59116 -107.18056 9404 ft 151 kts 56°
2026-04-22 01:05 39.59697 -107.16883 9312 ft 157 kts 57°
2026-04-22 01:05 39.60261 -107.15707 9208 ft 152 kts 59°
2026-04-22 01:05 39.60841 -107.14538 9111 ft 155 kts 56°
2026-04-22 01:06 39.61450 -107.13361 9023 ft 159 kts 56°
2026-04-22 01:06 39.62084 -107.12152 8941 ft 165 kts 56°
2026-04-22 01:06 39.62551 -107.10861 8913 ft 157 kts 88°
2026-04-22 01:06 39.62430 -107.09499 8909 ft 151 kts 111°
2026-04-22 01:07 39.62084 -107.08217 8922 ft 152 kts 115°
2026-04-22 01:07 39.61727 -107.06929 8926 ft 151 kts 115°
2026-04-22 01:07 39.61372 -107.05658 8927 ft 149 kts 115°
2026-04-22 01:07 39.61015 -107.04398 8935 ft 149 kts 115°
2026-04-22 01:08 39.60761 -107.03105 8893 ft 152 kts 100°
2026-04-22 01:08 39.60707 -107.01718 8796 ft 154 kts 94°
2026-04-22 01:08 39.60710 -107.00313 8693 ft 157 kts 86°
2026-04-22 01:08 39.60887 -106.98906 8586 ft 158 kts 81°
2026-04-22 01:09 39.61141 -106.97547 8512 ft 152 kts 72°
2026-04-22 01:09 39.61568 -106.96263 8506 ft 157 kts 63°
2026-04-22 01:09 39.62101 -106.95047 8500 ft 154 kts 60°
2026-04-22 01:09 39.62559 -106.93819 8495 ft 149 kts 71°
2026-04-22 01:10 39.62793 -106.92528 8493 ft 144 kts 81°
2026-04-22 01:10 39.62921 -106.91270 8425 ft 137 kts 84°
2026-04-22 01:10 39.63035 -106.90071 8304 ft 130 kts 83°
2026-04-22 01:10 39.63164 -106.88975 8196 ft 117 kts 83°
2026-04-22 01:11 39.63284 -106.87972 8047 ft 108 kts 78°
2026-04-22 01:11 39.63728 -106.87274 7817 ft 96 kts 18°
2026-04-22 01:11 39.64340 -106.87173 7528 ft 86 kts 336°
2026-04-22 01:11 39.64667 -106.87730 7213 ft 81 kts 277°
2026-04-22 01:12 39.64632 -106.88373 7008 ft 64 kts 263°
2026-04-22 01:12 39.64574 -106.88913 6843 ft 58 kts 264°
2026-04-22 01:12 39.64518 -106.89417 6712 ft 59 kts 263°
2026-04-22 01:12 39.64451 -106.89994 6608 ft 70 kts 263°
2026-04-22 01:13 39.64390 -106.90567 6519 ft 54 kts 263°
2026-04-22 01:13 39.64353 -106.90905 6505 ft 13 kts 257°
2026-04-22 01:13 39.64281 -106.90943 6503 ft 13 kts 174°
2026-04-22 01:13 39.64247 -106.90863 6506 ft 10 kts 83°
2026-04-22 01:14 39.64257 -106.90767 6509 ft 11 kts 82°
2026-04-22 01:14 39.64269 -106.90662 6513 ft 12 kts 82°
2026-04-22 01:14 39.64282 -106.90549 6517 ft 13 kts 82°
2026-04-22 01:14 39.64295 -106.90428 6521 ft 14 kts 82°
2026-04-22 01:15 39.64310 -106.90299 6526 ft 15 kts 81°
2026-04-22 01:15 39.64323 -106.90172 6530 ft 11 kts 82°
2026-04-22 01:15 39.64330 -106.90107 6533 ft 6 kts 82°
2026-04-22 01:15 39.64334 -106.90074 6534 ft 3 kts 81°
2026-04-22 01:16 39.64336 -106.90060 6534 ft 1 kts 82°
2026-04-22 01:16 39.64342 -106.90034 6535 ft 3 kts 56°
2026-04-22 01:16 39.64344 -106.90030 6535 ft 0 kts 52°
2026-04-22 01:18 39.64354 -106.90018 6536 ft 3 kts 28°
2026-04-22 01:18 39.64359 -106.90015 6536 ft 0 kts 24°
2026-04-22 01:19 39.64363 -106.90014 6536 ft 3 kts 15°
2026-04-22 01:20 39.64425 -106.90036 6538 ft 14 kts 313°
2026-04-22 01:20 39.64426 -106.90248 6530 ft 42 kts 262°
2026-04-22 01:20 39.64366 -106.90763 6556 ft 69 kts 262°
2026-04-22 01:20 39.64299 -106.91411 6721 ft 74 kts 263°
2026-04-22 01:21 39.64219 -106.92061 6941 ft 75 kts 261°
2026-04-22 01:21 39.63926 -106.92622 7186 ft 81 kts 213°
2026-04-22 01:21 39.63395 -106.92483 7456 ft 92 kts 144°
2026-04-22 01:21 39.63198 -106.91652 7627 ft 104 kts 94°
2026-04-22 01:22 39.63232 -106.90685 7811 ft 109 kts 88°
2026-04-22 01:22 39.63304 -106.89700 7993 ft 109 kts 84°
2026-04-22 01:22 39.63428 -106.88730 8183 ft 108 kts 76°
2026-04-22 01:22 39.63656 -106.87786 8343 ft 111 kts 69°
2026-04-22 01:23 39.63894 -106.86869 8511 ft 106 kts 71°
2026-04-22 01:23 39.64137 -106.85954 8673 ft 108 kts 70°
2026-04-22 01:23 39.64387 -106.85055 8826 ft 103 kts 71°
2026-04-22 01:23 39.64641 -106.84247 8974 ft 92 kts 68°
2026-04-22 01:24 39.64889 -106.83458 9085 ft 97 kts 65°
2026-04-22 01:24 39.65213 -106.82655 9221 ft 104 kts 62°
2026-04-22 01:24 39.65562 -106.81793 9360 ft 111 kts 62°
2026-04-22 01:24 39.65974 -106.80918 9498 ft 119 kts 56°
2026-04-22 01:25 39.66464 -106.79989 9512 ft 128 kts 53°
2026-04-22 01:25 39.67025 -106.79027 9508 ft 138 kts 51°
2026-04-22 01:25 39.67625 -106.78020 9502 ft 144 kts 52°
2026-04-22 01:25 39.68241 -106.76980 9495 ft 147 kts 53°
2026-04-22 01:26 39.68871 -106.75910 9487 ft 150 kts 52°
2026-04-22 01:26 39.69481 -106.74841 9478 ft 149 kts 54°
2026-04-22 01:26 39.70032 -106.73708 9473 ft 148 kts 57°
2026-04-22 01:26 39.70549 -106.72554 9470 ft 147 kts 60°
2026-04-22 01:27 39.71069 -106.71407 9465 ft 146 kts 60°
2026-04-22 01:27 39.71226 -106.70145 9437 ft 143 kts 105°
2026-04-22 01:27 39.70795 -106.69025 9443 ft 137 kts 130°
2026-04-22 01:27 39.70153 -106.68124 9450 ft 136 kts 140°
2026-04-22 01:28 39.69483 -106.67259 9454 ft 135 kts 140°
2026-04-22 01:28 39.68818 -106.66405 9489 ft 130 kts 139°
2026-04-22 01:28 39.68182 -106.65579 9619 ft 131 kts 139°
2026-04-22 01:28 39.67542 -106.64753 9723 ft 126 kts 140°
2026-04-22 01:29 39.66978 -106.63871 9830 ft 128 kts 129°
2026-04-22 01:29 39.66515 -106.62870 9946 ft 131 kts 123°
2026-04-22 01:29 39.66062 -106.61856 10052 ft 128 kts 124°
2026-04-22 01:29 39.65672 -106.60812 10160 ft 129 kts 118°
2026-04-22 01:30 39.65304 -106.59755 10272 ft 128 kts 118°
2026-04-22 01:30 39.64935 -106.58697 10380 ft 129 kts 119°
2026-04-22 01:30 39.64571 -106.57644 10491 ft 127 kts 119°
2026-04-22 01:30 39.64210 -106.56606 10604 ft 126 kts 119°
2026-04-22 01:31 39.63854 -106.55577 10712 ft 124 kts 119°
2026-04-22 01:31 39.63506 -106.54576 10822 ft 123 kts 118°
2026-04-22 01:31 39.63161 -106.53572 10937 ft 121 kts 119°
2026-04-22 01:31 39.62818 -106.52581 11047 ft 119 kts 119°
2026-04-22 01:32 39.62476 -106.51604 11160 ft 119 kts 119°
2026-04-22 01:32 39.62118 -106.50652 11276 ft 116 kts 123°
2026-04-22 01:32 39.61730 -106.49751 11379 ft 113 kts 123°
2026-04-22 01:32 39.61354 -106.48870 11457 ft 112 kts 123°
2026-04-22 01:33 39.60959 -106.47960 11486 ft 118 kts 123°
2026-04-22 01:33 39.60486 -106.47076 11492 ft 119 kts 133°
2026-04-22 01:33 39.59947 -106.46243 11498 ft 121 kts 134°
2026-04-22 01:33 39.59409 -106.45394 11491 ft 125 kts 135°
2026-04-22 01:34 39.58838 -106.44523 11504 ft 129 kts 135°
2026-04-22 01:34 39.58220 -106.43670 11487 ft 130 kts 142°
2026-04-22 01:34 39.57508 -106.42967 11504 ft 128 kts 149°
2026-04-22 01:34 39.56776 -106.42297 11506 ft 130 kts 147°
2026-04-22 01:35 39.56023 -106.41648 11521 ft 131 kts 150°
2026-04-22 01:35 39.55267 -106.40981 11531 ft 132 kts 149°
2026-04-22 01:35 39.54508 -106.40317 11554 ft 132 kts 150°
2026-04-22 01:35 39.53722 -106.39639 11509 ft 140 kts 150°
2026-04-22 01:36 39.52874 -106.39014 11537 ft 140 kts 153°
2026-04-22 01:36 39.52015 -106.38387 11538 ft 142 kts 153°
2026-04-22 01:36 39.51165 -106.37776 11540 ft 141 kts 153°
2026-04-22 01:36 39.50313 -106.37154 11553 ft 138 kts 154°
2026-04-22 01:37 39.49477 -106.36540 11567 ft 139 kts 154°
2026-04-22 01:37 39.48646 -106.35931 11575 ft 136 kts 154°
2026-04-22 01:37 39.47824 -106.35329 11575 ft 135 kts 153°
2026-04-22 01:37 39.46998 -106.34738 11597 ft 138 kts 154°
2026-04-22 01:38 39.46152 -106.34142 11596 ft 138 kts 154°
2026-04-22 01:38 39.45306 -106.33563 11549 ft 139 kts 158°
2026-04-22 01:38 39.44409 -106.33092 11530 ft 137 kts 161°
2026-04-22 01:38 39.43528 -106.32677 11520 ft 133 kts 168°
2026-04-22 01:39 39.42653 -106.32442 11521 ft 122 kts 175°
2026-04-22 01:39 39.41815 -106.32269 11517 ft 123 kts 174°
2026-04-22 01:39 39.40962 -106.32097 11538 ft 124 kts 174°
2026-04-22 01:39 39.40106 -106.32007 11543 ft 125 kts 182°
2026-04-22 01:40 39.39213 -106.32061 11522 ft 131 kts 188°
2026-04-22 01:40 39.38309 -106.32202 11517 ft 132 kts 189°
2026-04-22 01:40 39.37408 -106.32367 11521 ft 126 kts 193°
2026-04-22 01:40 39.36564 -106.32599 11526 ft 122 kts 195°
2026-04-22 01:41 39.35732 -106.32821 11541 ft 122 kts 195°
2026-04-22 01:41 39.34894 -106.33050 11537 ft 126 kts 194°
2026-04-22 01:41 39.34034 -106.33293 11521 ft 124 kts 195°
2026-04-22 01:41 39.33186 -106.33530 11528 ft 124 kts 195°
2026-04-22 01:42 39.32331 -106.33749 11534 ft 127 kts 195°
2026-04-22 01:42 39.31458 -106.33986 11545 ft 129 kts 195°
2026-04-22 01:42 39.30565 -106.34129 11550 ft 131 kts 185°
2026-04-22 01:42 39.29659 -106.34157 11553 ft 129 kts 185°
2026-04-22 01:43 39.28759 -106.34186 11548 ft 129 kts 185°
2026-04-22 01:43 39.27879 -106.34167 11546 ft 127 kts 182°
2026-04-22 01:43 39.27007 -106.34023 11540 ft 126 kts 172°
2026-04-22 01:43 39.26152 -106.33768 11508 ft 127 kts 173°
2026-04-22 01:44 39.25259 -106.33509 11389 ft 135 kts 172°
2026-04-22 01:44 39.24322 -106.33278 11261 ft 138 kts 174°
2026-04-22 01:44 39.23369 -106.33051 11103 ft 139 kts 174°
2026-04-22 01:44 39.22416 -106.32825 10931 ft 140 kts 173°
2026-04-22 01:45 39.21497 -106.32614 10884 ft 122 kts 174°
2026-04-22 01:45 39.20763 -106.32396 10877 ft 97 kts 171°
2026-04-22 01:45 39.20161 -106.32199 10715 ft 90 kts 161°
2026-04-22 01:45 39.19983 -106.31464 10496 ft 89 kts 74°
2026-04-22 01:46 39.20482 -106.31230 10219 ft 88 kts 339°
2026-04-22 01:46 39.21076 -106.31450 9996 ft 91 kts 346°
2026-04-22 01:46 39.21618 -106.31572 9931 ft 65 kts 351°
2026-04-22 01:46 39.21986 -106.31651 9936 ft 44 kts 350°
2026-04-22 01:47 39.22248 -106.31708 9939 ft 33 kts 349°
2026-04-22 01:47 39.22425 -106.31748 9939 ft 18 kts 351°
2026-04-22 01:47 39.22484 -106.31709 9938 ft 10 kts 81°
2026-04-22 01:47 39.22507 -106.31660 9935 ft 5 kts 357°
2026-04-22 01:48 39.22538 -106.31659 9937 ft 2 kts 62°
2026-04-22 01:48 39.22539 -106.31650 9936 ft 1 kts 81°
2026-04-22 01:48 39.22540 -106.31645 9937 ft 0 kts 81°